TimeCDT,TemperatureF,Dew PointF,Humidity,Sea Level PressureIn,VisibilityMPH,Wind Direction,Wind SpeedMPH,Gust SpeedMPH,PrecipitationIn,Events,Conditions,WindDirDegrees,DateUTC
12:53 AM,46.9,39.0,74,30.17,10.0,NE,16.1,-,N/A,,Overcast,50,2012-10-07 05:53:00
1:53 AM,46.0,37.9,73,30.18,10.0,NE,13.8,-,N/A,,Overcast,40,2012-10-07 06:53:00
2:53 AM,45.0,37.0,74,30.19,10.0,NE,10.4,-,N/A,,Overcast,50,2012-10-07 07:53:00
3:35 AM,42.8,39.2,87,30.26,8.0,ENE,11.5,-,N/A,,Overcast,60,2012-10-07 08:35:00
3:50 AM,42.8,39.2,87,30.26,6.0,NE,12.7,-,N/A,,Overcast,50,2012-10-07 08:50:00
3:53 AM,42.1,37.9,85,30.20,6.0,NE,12.7,-,N/A,,Overcast,50,2012-10-07 08:53:00
4:39 AM,39.2,37.4,93,30.25,4.0,NE,11.5,-,0.00,Rain,Light Rain,40,2012-10-07 09:39:00
4:53 AM,39.9,37.9,93,30.19,4.0,NE,11.5,-,0.00,,Overcast,40,2012-10-07 09:53:00
5:53 AM,39.9,37.9,93,30.20,5.0,NE,8.1,-,N/A,,Overcast,40,2012-10-07 10:53:00
6:03 AM,39.2,37.4,93,30.26,4.0,NE,8.1,-,N/A,,Overcast,40,2012-10-07 11:03:00
6:10 AM,39.2,37.4,93,30.26,4.0,ENE,6.9,-,N/A,,Overcast,60,2012-10-07 11:10:00
6:53 AM,39.9,37.0,89,30.21,6.0,NE,8.1,-,N/A,,Overcast,40,2012-10-07 11:53:00
7:53 AM,39.9,37.9,93,30.22,4.0,NE,3.5,-,N/A,,Overcast,50,2012-10-07 12:53:00
8:21 AM,39.2,37.4,93,30.27,3.0,NNE,6.9,-,N/A,,Overcast,30,2012-10-07 13:21:00
8:53 AM,39.9,37.9,93,30.23,3.0,NNE,6.9,-,N/A,,Overcast,30,2012-10-07 13:53:00
9:00 AM,39.2,37.4,93,30.29,4.0,NE,6.9,-,N/A,,Overcast,40,2012-10-07 14:00:00
9:09 AM,39.2,37.4,93,30.29,3.0,NE,5.8,-,N/A,,Overcast,40,2012-10-07 14:09:00
9:35 AM,39.2,37.4,93,30.29,2.5,NNE,5.8,-,N/A,,Overcast,30,2012-10-07 14:35:00
9:43 AM,39.2,37.4,93,30.29,3.0,NNE,5.8,-,N/A,,Overcast,30,2012-10-07 14:43:00
9:53 AM,39.9,37.9,93,30.25,4.0,ENE,5.8,-,N/A,,Overcast,60,2012-10-07 14:53:00
10:11 AM,41.0,37.4,87,30.29,7.0,NE,5.8,-,N/A,,Overcast,40,2012-10-07 15:11:00
10:53 AM,41.0,37.9,89,30.25,10.0,NE,6.9,-,N/A,,Overcast,40,2012-10-07 15:53:00
11:15 AM,42.8,37.4,81,30.29,10.0,NE,5.8,-,N/A,,Overcast,50,2012-10-07 16:15:00
11:53 AM,42.1,37.9,85,30.24,10.0,East,5.8,-,N/A,,Overcast,90,2012-10-07 16:53:00
12:53 PM,44.1,39.0,82,30.21,10.0,East,4.6,-,N/A,,Overcast,90,2012-10-07 17:53:00
1:53 PM,45.0,39.0,80,30.17,10.0,Variable,3.5,-,N/A,,Overcast,0,2012-10-07 18:53:00
2:48 PM,46.4,39.2,76,30.18,10.0,Calm,Calm,-,N/A,,Overcast,0,2012-10-07 19:48:00
2:53 PM,48.0,39.0,71,30.13,10.0,Variable,3.5,-,N/A,,Overcast,0,2012-10-07 19:53:00
3:53 PM,48.0,39.9,74,30.12,10.0,ENE,4.6,-,N/A,,Overcast,60,2012-10-07 20:53:00
4:53 PM,48.9,39.9,71,30.10,10.0,Variable,4.6,-,N/A,,Overcast,0,2012-10-07 21:53:00
5:53 PM,48.9,39.9,71,30.11,10.0,ENE,6.9,-,N/A,,Overcast,70,2012-10-07 22:53:00
6:53 PM,48.0,39.9,74,30.12,10.0,East,9.2,-,N/A,,Overcast,90,2012-10-07 23:53:00
7:53 PM,48.0,39.9,74,30.13,10.0,ESE,8.1,-,N/A,,Overcast,110,2012-10-08 00:53:00
8:53 PM,48.0,39.9,74,30.15,10.0,East,6.9,-,N/A,,Overcast,100,2012-10-08 01:53:00
9:53 PM,48.0,39.9,74,30.17,10.0,ESE,6.9,-,N/A,,Overcast,120,2012-10-08 02:53:00
10:53 PM,48.0,41.0,77,30.17,10.0,SE,4.6,-,N/A,,Overcast,140,2012-10-08 03:53:00
11:53 PM,48.0,42.1,80,30.17,10.0,ESE,6.9,-,N/A,,Overcast,120,2012-10-08 04:53:00